Odell, IL

7:44 AM CST on December 03, 2016 (GMT -0600)
Pontiac Municipal

Weather History for KPNT - November, 2011

Change the Weather History Date:

Tuesday, November 8, 2011

  Actual Average Record
Temperature  
Mean Temperature 58 °F -  
Max Temperature 60 °F 51 °F 78 °F (1931)
Min Temperature 55 °F 34 °F 5 °F (1991)
Degree Days  
Heating Degree Days 8    
Growing Degree Days 8 (Base 50)    
Moisture  
Dew Point 56 °F    
Average Humidity 96    
Maximum Humidity 100    
Minimum Humidity 88    
Precipitation  
Precipitation 0.62 in - - ()
Sea Level Pressure  
Sea Level Pressure 29.97 in    
Wind  
Wind Speed 8 mph (ESE)    
Max Wind Speed 13 mph    
Max Gust Speed -    
Visibility 5 miles    
Events Rain    
Averages and records for this station are not official NWS values.
T = Trace of Precipitation, MM = Missing Value Source: NWS Daily Summary

Daily Weather History Graph

Daily Weather History Graph

Search for Another Location

Airport or City:

Trip Planner

Search our weather history database for the weather conditions in past years. The results will help you decide how hot, cold, wet, or windy it might be!

Date:

Astronomy

Nov. 08, 2011 Rise Set
Actual Time 6:33 AM CST 4:42 PM CST
Civil Twilight 6:04 AM CST 5:11 PM CST
Nautical Twilight 5:31 AM CST 5:44 PM CST
Astronomical Twilight 4:59 AM CST 6:16 PM CST
Moon 3:22 PM CST (11/8) 4:31 AM CST (11/8)
Length of Visible Light 11h 07m
Length of Day
10h 09m
Waxing Gibbous, 96% of the Moon is Illuminated
Nov 8
Waxing Gibbous
Nov 10
Full
Nov 18
Last Quarter
Nov 25
New
Dec 2
First Quarter

Hourly Weather History & Observations

Time (CST) Temp. Dew Point Humidity Pressure Visibility Wind Dir Wind Speed Gust Speed Precip Events Conditions
12:15 AM 55.4 °F 55.4 °F 100% 30.08 in 2.5 mi East 10.4 mph - N/A   Overcast
12:35 AM 55.4 °F 55.4 °F 100% 30.07 in 2.0 mi East 10.4 mph - N/A   Overcast
12:55 AM 55.4 °F 55.4 °F 100% 30.06 in 2.0 mi East 9.2 mph - N/A   Overcast
1:15 AM 55.4 °F 55.4 °F 100% 30.06 in 2.0 mi East 9.2 mph - N/A   Light Drizzle
1:35 AM 55.4 °F 55.4 °F 100% 30.05 in 2.5 mi East 8.1 mph - N/A   Overcast
1:55 AM 55.4 °F 55.4 °F 100% 30.04 in 2.5 mi East 9.2 mph - N/A   Overcast
2:15 AM 55.4 °F 55.4 °F 100% 30.03 in 3.0 mi East 8.1 mph - N/A   Mostly Cloudy
2:35 AM 55.4 °F 55.4 °F 100% 30.03 in 3.0 mi East 6.9 mph - N/A   Mostly Cloudy
2:55 AM 55.4 °F 55.4 °F 100% 30.02 in 4.0 mi East 6.9 mph - N/A   Mostly Cloudy
3:15 AM 55.4 °F 55.4 °F 100% 30.02 in 4.0 mi ENE 5.8 mph - N/A   Mostly Cloudy
3:35 AM 55.4 °F 55.4 °F 100% 30.02 in 4.0 mi ENE 8.1 mph - N/A   Mostly Cloudy
3:55 AM 55.4 °F 53.6 °F 94% 30.01 in 2.5 mi NE 9.2 mph - N/A   Mostly Cloudy
4:15 AM 55.4 °F 53.6 °F 94% 30.01 in 2.0 mi ENE 9.2 mph - N/A   Overcast
4:35 AM 55.4 °F 55.4 °F 100% 30.00 in 3.0 mi ENE 8.1 mph - N/A   Mostly Cloudy
4:55 AM 55.4 °F 55.4 °F 100% 29.99 in 4.0 mi ENE 9.2 mph - N/A   Mostly Cloudy
5:15 AM 55.4 °F 55.4 °F 100% 29.99 in 4.0 mi East 9.2 mph - N/A   Mostly Cloudy
5:35 AM 55.4 °F 55.4 °F 100% 29.98 in 5.0 mi East 9.2 mph - N/A   Overcast
5:55 AM 55.4 °F 55.4 °F 100% 29.98 in 7.0 mi East 8.1 mph - N/A   Overcast
6:15 AM 55.4 °F 55.4 °F 100% 29.97 in 10.0 mi East 6.9 mph - N/A   Overcast
6:35 AM 57.2 °F 55.4 °F 94% 29.97 in 10.0 mi East 6.9 mph - N/A   Overcast
6:55 AM 55.4 °F 53.6 °F 94% 29.97 in 7.0 mi East 5.8 mph - 0.02 in Rain Rain
7:15 AM 55.4 °F 53.6 °F 94% 29.96 in 5.0 mi ENE 8.1 mph - 0.04 in Rain Rain
7:35 AM 55.4 °F 53.6 °F 94% 30.00 in 1.8 mi North 5.8 mph - 0.17 in Rain Heavy Rain
7:55 AM 55.4 °F 53.6 °F 94% 30.00 in 2.5 mi NNE 4.6 mph - N/A Rain Heavy Rain
8:15 AM 55.4 °F 55.4 °F 100% 29.98 in 2.5 mi East 6.9 mph - 0.17 in Rain Heavy Rain
8:35 AM 55.4 °F 55.4 °F 100% 29.98 in 4.0 mi East 6.9 mph - 0.25 in Rain Heavy Rain
8:55 AM 55.4 °F 55.4 °F 100% 29.97 in 7.0 mi SE 8.1 mph - 0.28 in Rain Light Rain
9:15 AM 55.4 °F 55.4 °F 100% 29.96 in 7.0 mi SE 9.2 mph - 0.01 in Rain Light Rain
9:35 AM 57.2 °F 55.4 °F 94% 29.95 in 7.0 mi ESE 9.2 mph - 0.01 in   Overcast
9:55 AM 57.2 °F 55.4 °F 94% 29.93 in 10.0 mi SSE 10.4 mph - 0.01 in   Mostly Cloudy
10:15 AM 57.2 °F 55.4 °F 94% 29.92 in 10.0 mi SE 10.4 mph - 0.01 in Rain Light Rain
10:35 AM 57.2 °F 57.2 °F 100% 29.93 in 10.0 mi SSE 9.2 mph - 0.02 in Rain Light Rain
10:55 AM 59.0 °F 57.2 °F 94% 29.93 in 10.0 mi South 10.4 mph - 0.03 in Rain Light Rain
11:15 AM 59.0 °F 57.2 °F 94% 29.92 in 10.0 mi South 9.2 mph - N/A   Overcast
11:35 AM 60.8 °F 57.2 °F 88% 29.92 in 10.0 mi South 10.4 mph - N/A   Overcast
11:55 AM 60.8 °F 57.2 °F 88% 29.92 in 10.0 mi SSW 10.4 mph - N/A   Overcast
12:15 PM 60.8 °F 57.2 °F 88% 29.91 in 10.0 mi South 10.4 mph - N/A   Overcast
12:35 PM 60.8 °F 57.2 °F 88% 29.91 in 10.0 mi SSW 12.7 mph - N/A   Overcast
12:55 PM 60.8 °F 57.2 °F 88% 29.92 in 10.0 mi SSW 11.5 mph - N/A   Overcast
1:15 PM 60.8 °F 57.2 °F 88% 29.92 in 7.0 mi SW 10.4 mph - N/A   Overcast
1:35 PM 60.8 °F 57.2 °F 88% 29.92 in 4.0 mi WSW 8.1 mph - N/A   Overcast
1:55 PM 60.8 °F 57.2 °F 88% 29.92 in 5.0 mi WSW 6.9 mph - N/A   Overcast
2:15 PM 60.8 °F 57.2 °F 88% 29.93 in 1.5 mi West 9.2 mph - N/A Rain Light Rain
2:35 PM 60.8 °F 59.0 °F 94% 29.93 in 3.0 mi West 8.1 mph - N/A   Overcast
2:55 PM 59.0 °F 59.0 °F 100% 29.94 in 5.0 mi WSW 6.9 mph - N/A   Overcast
3:15 PM 59.0 °F 57.2 °F 94% 29.94 in 5.0 mi WSW 6.9 mph - N/A Rain Light Rain
3:35 PM 59.0 °F 57.2 °F 94% 29.95 in 5.0 mi WSW 6.9 mph - N/A Rain Light Rain
3:55 PM 59.0 °F 57.2 °F 94% 29.94 in 4.0 mi WSW 3.5 mph - 0.02 in Rain Rain
4:15 PM 59.0 °F 57.2 °F 94% 29.95 in 4.0 mi SSW 3.5 mph - 0.02 in Rain Light Rain
4:35 PM 57.2 °F 57.2 °F 100% 29.95 in 2.0 mi Calm Calm - 0.06 in Rain Rain
4:55 PM 57.2 °F 57.2 °F 100% 29.94 in 4.0 mi Calm Calm - 0.08 in Rain Light Rain
5:15 PM 57.2 °F 57.2 °F 100% 29.93 in 2.0 mi ESE 3.5 mph - 0.01 in Rain Light Rain
5:35 PM 57.2 °F 57.2 °F 100% 29.93 in 2.0 mi Calm Calm - 0.01 in   Overcast
5:55 PM 57.2 °F 57.2 °F 100% 29.93 in 2.5 mi Calm Calm - 0.01 in   Overcast
6:15 PM 57.2 °F 57.2 °F 100% 29.92 in 2.0 mi East 5.8 mph - N/A   Overcast
6:35 PM 57.2 °F 57.2 °F 100% 29.95 in 2.0 mi Calm Calm - N/A   Overcast
6:55 PM 57.2 °F 57.2 °F 100% 29.94 in 1.0 mi Calm Calm - N/A   Overcast
7:15 PM 57.2 °F 55.4 °F 94% 29.95 in 2.0 mi North 5.8 mph - N/A Rain Light Rain
7:35 PM 53.6 °F 53.6 °F 100% 29.96 in 2.0 mi North 10.4 mph - N/A Rain Rain
7:55 PM 51.8 °F 51.8 °F 100% 29.95 in 2.5 mi North 12.7 mph - 0.01 in   Drizzle
8:15 PM 51.8 °F 51.8 °F 100% 29.95 in 2.5 mi North 10.4 mph - N/A   Light Drizzle
8:35 PM 51.8 °F 50.0 °F 94% 29.94 in 2.5 mi NNE 13.8 mph - N/A   Drizzle
8:55 PM 51.8 °F 51.8 °F 100% 29.92 in 4.0 mi NE 16.1 mph - 0.01 in   Light Drizzle
9:15 PM 51.8 °F 51.8 °F 100% 29.92 in 4.0 mi NE 17.3 mph - N/A Rain Light Rain
9:35 PM 51.8 °F 51.8 °F 100% 29.91 in 3.0 mi NE 15.0 mph 20.7 mph 0.01 in Rain Light Rain
9:55 PM 51.8 °F 50.0 °F 94% 29.90 in 4.0 mi NE 17.3 mph - 0.05 in Rain Light Rain
10:15 PM 51.8 °F 50.0 °F 94% 29.89 in 5.0 mi ENE 15.0 mph - 0.02 in Rain Light Rain
10:35 PM 51.8 °F 50.0 °F 94% 29.86 in 7.0 mi ENE 15.0 mph - 0.02 in   Light Drizzle
10:55 PM 51.8 °F 50.0 °F 94% 29.87 in 4.0 mi ENE 12.7 mph - N/A   Drizzle
11:15 PM 51.8 °F 50.0 °F 94% 29.86 in 2.5 mi ENE 12.7 mph - N/A Rain Light Rain
11:35 PM 51.8 °F 50.0 °F 94% 29.85 in 3.0 mi ENE 15.0 mph - 0.01 in Rain Light Rain
11:55 PM 51.8 °F 51.8 °F 100% 29.84 in 4.0 mi East 15.0 mph - 0.01 in   Overcast